DELTA 1 DEB, 14905

Orbit data source: Space-Track

DELTA 1 DEB, 14905 is space debris in SSO originally from a launch on Thu, 29 Jul 1976 UTC launched from the Air Force Western Test Range (AFWTR). Debris objects in space refer to the collection of defunct objects orbiting the Earth. Examples of debris include non-operational satellites, rocket bodies, and fragments generated from explosions, collisions, or faulty payload assembly.

Loading next visibility...
Identifier
14905, 1976-077ET
Orbit
SSO
Country
Flag of USUS
Related business
Manufacturer
Unknown
Mission
Spacecraft
Bus & Motor
Unknown
Mass
Unknown
Launch date (UTC)
1976-07-29 (49 years ago)
Launch vehicle
Unknown
Launch site
Air Force Western Test Range (AFWTR)
Object type
Payload
Rocket body
Debris
Shape & HBR
Unknown shape, 0.1 m
Radar Cross Section
Small (<0.1 m²)

Expand to show TLE details & history
Last TLE update: 15 hours ago

TLE from 15 hours ago
0 DELTA 1 DEB
1 14905U 76077ET  25292.12626463 -.00000002  00000-0  42126-3 0  9997
2 14905 102.2953 355.7325 0183979  66.1491 351.0039 12.07360229889263
Epoch: 2025-10-19T03:01Z
TLE epoch observation values (Epoch: 2025-10-19T03:01:49.264Z)
Latitude
54.95174°
Longitude
-95.58017°
Altitude
1,511.12 km
Speed
7.179 km/s
True Right ascension
22h 30m 53s
True Declination
54° 48' 19"
Sunlit
Object was in daylight at epoch
Visualization orbit readout
Latitude
Unknown
Longitude
Unknown
Altitude
Unknown
Speed
Unknown
Apparent Right ascension
Unknown
Apparent Declination
Unknown
Sunlit
N/A
Visualization observer readout
Local Sidereal Time
12:48:00
Azimuth
Unknown
Elevation
Unknown
Doppler factor
Unknown
Orbital elements
Apogee altitude
1,793.33 km
Perigee altitude
1,498.086 km
Semi-major axis
8,023.845 km
Eccentricity
0.0184
Inclination
102.2953°
RAAN
355.7325°
Arg. of periapsis
66.1491°
True anomaly
350.66659°
Mean anomaly
351.0039°
Eccentric anomaly
350.83602°
Mean motion
3.01974 °/min
Orbital period
119.22 mins
BSTAR
0.00042126
Loading maneuver chart data...
Computing Atmospheric mass density...
Loading historical data...
Loading historical data...
Loading historical data...
Loading historical data...
Loading historical data...
Loading historical data...
Loading historical data...

Documentation

Showing up to 5 results
|